Time,TemperatureF,DewpointF,PressureIn,WindDirection,WindDirectionDegrees,WindSpeedMPH,WindSpeedGustMPH,Humidity,HourlyPrecipIn,Conditions,Clouds,dailyrainin,SoftwareType,DateUTC
2013-03-04 00:01:00,42.1,36.4,29.85,SE,125,9.0,24.0,80,0.00,OVC,,0.00,WeatherDisplay:10.37,2013-03-04 00:01:00,
2013-03-04 00:16:00,42.4,36.7,29.85,ESE,119,15.0,22.0,80,0.00,OVC,,0.00,WeatherDisplay:10.37,2013-03-04 00:16:00,
2013-03-04 00:31:00,42.6,36.9,29.85,SE,127,13.0,23.0,80,0.00,OVC,,0.00,WeatherDisplay:10.37,2013-03-04 00:31:00,
2013-03-04 00:46:00,42.6,36.9,29.85,ESE,120,10.0,23.0,80,0.00,OVC,,0.00,WeatherDisplay:10.37,2013-03-04 00:46:00,
2013-03-04 01:01:00,42.8,37.0,29.84,ESE,115,7.0,18.0,80,0.00,OVC,,0.00,WeatherDisplay:10.37,2013-03-04 01:01:00,
2013-03-04 01:16:00,43.0,37.5,29.85,ESE,117,8.0,17.0,81,0.00,OVC,,0.00,WeatherDisplay:10.37,2013-03-04 01:16:00,
2013-03-04 01:31:00,43.0,37.5,29.85,SE,125,10.0,16.0,81,0.00,OVC,,0.00,WeatherDisplay:10.37,2013-03-04 01:31:00,
2013-03-04 01:46:00,43.0,37.5,29.85,ESE,117,7.0,17.0,81,0.00,OVC,,0.00,WeatherDisplay:10.37,2013-03-04 01:46:00,
2013-03-04 02:01:00,43.2,37.7,29.85,ESE,113,6.0,16.0,81,0.00,OVC,,0.00,WeatherDisplay:10.37,2013-03-04 02:01:00,
2013-03-04 02:16:00,43.2,37.7,29.84,ESE,117,9.0,15.0,81,0.00,OVC,,0.00,WeatherDisplay:10.37,2013-03-04 02:16:00,
2013-03-04 02:31:00,43.2,37.7,29.83,ESE,113,6.0,15.0,81,0.00,OVC,,0.00,WeatherDisplay:10.37,2013-03-04 02:31:00,
2013-03-04 02:46:00,43.3,37.9,29.83,ESE,123,8.0,15.0,81,0.00,OVC,,0.00,WeatherDisplay:10.37,2013-03-04 02:46:00,
2013-03-04 03:01:00,43.3,37.9,29.82,SE,124,9.0,17.0,81,0.00,OVC,,0.00,WeatherDisplay:10.37,2013-03-04 03:01:00,
2013-03-04 03:16:00,43.3,37.5,29.82,ESE,120,9.0,17.0,80,0.00,OVC,,0.00,WeatherDisplay:10.37,2013-03-04 03:16:00,
2013-03-04 03:31:00,43.2,37.4,29.82,ESE,114,8.0,16.0,80,0.00,OVC,,0.00,WeatherDisplay:10.37,2013-03-04 03:31:00,
2013-03-04 03:46:00,43.1,37.3,29.82,ESE,113,8.0,14.0,80,0.00,OVC,,0.00,WeatherDisplay:10.37,2013-03-04 03:46:00,
2013-03-04 04:01:00,43.0,37.2,29.81,ESE,113,8.0,16.0,80,0.00,OVC,,0.00,WeatherDisplay:10.37,2013-03-04 04:01:00,
2013-03-04 04:16:00,43.0,37.5,29.80,ESE,116,7.0,15.0,81,0.00,OVC,,0.00,WeatherDisplay:10.37,2013-03-04 04:16:00,
2013-03-04 04:31:00,43.0,37.5,29.81,ESE,115,9.0,18.0,81,0.00,OVC,,0.00,WeatherDisplay:10.37,2013-03-04 04:31:00,
2013-03-04 04:46:00,43.0,37.5,29.80,ESE,122,7.0,17.0,81,0.00,OVC,,0.00,WeatherDisplay:10.37,2013-03-04 04:46:00,
2013-03-04 05:01:00,43.0,37.5,29.80,ESE,117,8.0,18.0,81,0.00,OVC,,0.00,WeatherDisplay:10.37,2013-03-04 05:01:00,
2013-03-04 05:16:00,43.2,37.7,29.79,ESE,122,10.0,14.0,81,0.00,OVC,,0.00,WeatherDisplay:10.37,2013-03-04 05:16:00,
2013-03-04 05:31:00,43.2,37.7,29.79,ESE,118,10.0,16.0,81,0.00,OVC,,0.00,WeatherDisplay:10.37,2013-03-04 05:31:00,
2013-03-04 05:46:00,43.2,37.7,29.77,ESE,118,8.0,16.0,81,0.00,OVC,,0.00,WeatherDisplay:10.37,2013-03-04 05:46:00,
2013-03-04 06:01:00,43.2,37.7,29.77,SE,124,8.0,19.0,81,0.00,OVC,,0.00,WeatherDisplay:10.37,2013-03-04 06:01:00,
2013-03-04 06:16:00,43.0,37.5,29.77,ESE,123,9.0,20.0,81,0.00,BKN,,0.00,WeatherDisplay:10.37,2013-03-04 06:16:00,
2013-03-04 06:31:00,42.7,37.3,29.77,ESE,123,8.0,20.0,81,0.00,BKN,,0.00,WeatherDisplay:10.37,2013-03-04 06:31:00,
2013-03-04 06:46:00,42.6,37.2,29.76,ESE,117,13.0,20.0,81,0.00,BKN,,0.00,WeatherDisplay:10.37,2013-03-04 06:46:00,
2013-03-04 07:01:00,42.5,37.1,29.76,SE,126,12.0,20.0,81,0.00,BKN,,0.00,WeatherDisplay:10.37,2013-03-04 07:01:00,
2013-03-04 07:16:00,42.4,37.0,29.76,SE,124,15.0,20.0,81,0.00,BKN,,0.00,WeatherDisplay:10.37,2013-03-04 07:16:00,
2013-03-04 07:31:00,42.1,37.0,29.75,ESE,122,13.0,20.0,82,0.00,BKN,,0.00,WeatherDisplay:10.37,2013-03-04 07:31:00,
2013-03-04 07:46:00,42.2,37.1,29.75,ESE,118,12.0,20.0,82,0.00,BKN,,0.00,WeatherDisplay:10.37,2013-03-04 07:46:00,
2013-03-04 08:01:00,42.4,37.3,29.75,ESE,120,14.0,22.0,82,0.00,BKN,,0.00,WeatherDisplay:10.37,2013-03-04 08:01:00,
2013-03-04 08:16:00,42.6,37.5,29.75,ESE,119,17.0,23.0,82,0.00,BKN,,0.00,WeatherDisplay:10.37,2013-03-04 08:16:00,
2013-03-04 08:31:00,43.0,37.9,29.75,ESE,121,14.0,21.0,82,0.00,BKN,,0.00,WeatherDisplay:10.37,2013-03-04 08:31:00,
2013-03-04 08:46:00,43.2,38.1,29.75,ESE,117,10.0,22.0,82,0.00,BKN,,0.00,WeatherDisplay:10.37,2013-03-04 08:46:00,
2013-03-04 09:01:00,43.5,38.4,29.74,ESE,114,16.0,24.0,82,0.00,BKN,,0.00,WeatherDisplay:10.37,2013-03-04 09:01:00,
2013-03-04 09:16:00,44.1,38.6,29.74,ESE,118,13.0,23.0,81,0.00,BKN,,0.00,WeatherDisplay:10.37,2013-03-04 09:16:00,
2013-03-04 09:31:00,44.3,38.5,29.73,ESE,119,15.0,22.0,80,0.00,BKN,,0.00,WeatherDisplay:10.37,2013-03-04 09:31:00,
2013-03-04 09:46:00,44.4,38.6,29.73,SE,125,12.0,20.0,80,0.00,BKN,,0.00,WeatherDisplay:10.37,2013-03-04 09:46:00,
2013-03-04 10:01:00,45.0,38.8,29.73,ESE,115,16.0,22.0,79,0.00,BKN,,0.00,WeatherDisplay:10.37,2013-03-04 10:01:00,
2013-03-04 10:16:00,45.0,38.8,29.72,ESE,119,15.0,22.0,79,0.00,BKN,,0.00,WeatherDisplay:10.37,2013-03-04 10:16:00,
2013-03-04 10:31:00,45.3,39.2,29.72,ESE,122,12.0,21.0,79,0.00,BKN,,0.00,WeatherDisplay:10.37,2013-03-04 10:31:00,
2013-03-04 10:46:00,45.7,39.2,29.71,SE,134,8.0,20.0,78,0.00,BKN,,0.00,WeatherDisplay:10.37,2013-03-04 10:46:00,
2013-03-04 11:01:00,46.0,39.2,29.71,ESE,122,16.0,25.0,77,0.00,BKN,,0.00,WeatherDisplay:10.37,2013-03-04 11:01:00,
2013-03-04 11:16:00,46.2,39.4,29.71,SE,124,12.0,20.0,77,0.00,BKN,,0.00,WeatherDisplay:10.37,2013-03-04 11:16:00,
2013-03-04 11:31:00,46.2,39.4,29.71,SE,126,14.0,23.0,77,0.00,BKN,,0.00,WeatherDisplay:10.37,2013-03-04 11:31:00,
2013-03-04 11:46:00,46.6,39.4,29.70,SE,131,12.0,23.0,76,0.00,BKN,,0.00,WeatherDisplay:10.37,2013-03-04 11:46:00,
2013-03-04 12:01:00,46.9,39.8,29.70,SE,124,12.0,23.0,76,0.00,BKN,,0.00,WeatherDisplay:10.37,2013-03-04 12:01:00,
2013-03-04 12:16:00,47.1,39.3,29.69,SE,126,14.0,23.0,74,0.00,BKN,,0.00,WeatherDisplay:10.37,2013-03-04 12:16:00,
2013-03-04 12:31:00,47.5,39.9,29.69,SE,126,12.0,24.0,75,0.00,BKN,,0.00,WeatherDisplay:10.37,2013-03-04 12:31:00,
2013-03-04 12:46:00,48.5,40.6,29.69,SE,127,8.0,20.0,74,0.00,BKN,,0.00,WeatherDisplay:10.37,2013-03-04 12:46:00,
2013-03-04 13:01:00,48.6,40.3,29.69,SE,134,14.0,20.0,73,0.00,BKN,,0.00,WeatherDisplay:10.37,2013-03-04 13:01:00,
2013-03-04 13:16:00,47.8,39.6,29.67,SE,128,16.0,23.0,73,0.00,BKN,,0.00,WeatherDisplay:10.37,2013-03-04 13:16:00,
2013-03-04 13:31:00,48.4,40.5,29.67,SE,127,14.0,22.0,74,0.00,BKN,,0.00,WeatherDisplay:10.37,2013-03-04 13:31:00,
2013-03-04 13:46:00,48.4,40.1,29.66,SE,128,15.0,21.0,73,0.00,BKN,,0.00,WeatherDisplay:10.37,2013-03-04 13:46:00,
2013-03-04 14:01:00,48.6,40.3,29.66,ESE,123,16.0,24.0,73,0.00,BKN,,0.00,WeatherDisplay:10.37,2013-03-04 14:01:00,
2013-03-04 14:16:00,48.5,40.2,29.65,ESE,121,15.0,23.0,73,0.00,BKN,,0.00,WeatherDisplay:10.37,2013-03-04 14:16:00,
2013-03-04 14:31:00,48.6,40.6,29.65,ESE,119,14.0,23.0,74,0.00,BKN,,0.00,WeatherDisplay:10.37,2013-03-04 14:31:00,
2013-03-04 14:46:00,48.6,40.7,29.64,ESE,122,14.0,22.0,74,0.00,BKN,,0.00,WeatherDisplay:10.37,2013-03-04 14:46:00,
2013-03-04 15:01:00,48.0,40.1,29.63,SE,129,15.0,23.0,74,0.00,BKN,,0.00,WeatherDisplay:10.37,2013-03-04 15:01:00,
2013-03-04 15:16:00,47.8,40.3,29.63,ESE,119,16.0,20.0,75,0.00,FEW,,0.00,WeatherDisplay:10.37,2013-03-04 15:16:00,
2013-03-04 15:31:00,47.3,39.8,29.63,SE,128,17.0,22.0,75,0.00,FEW,,0.00,WeatherDisplay:10.37,2013-03-04 15:31:00,
2013-03-04 15:46:00,47.2,39.7,29.63,SE,126,15.0,21.0,75,0.00,FEW,,0.00,WeatherDisplay:10.37,2013-03-04 15:46:00,
2013-03-04 16:01:00,46.9,39.4,29.62,ESE,120,13.0,22.0,75,0.00,FEW,,0.00,WeatherDisplay:10.37,2013-03-04 16:01:00,
2013-03-04 16:16:00,46.3,39.1,29.62,ESE,122,14.0,23.0,76,0.00,FEW,,0.00,WeatherDisplay:10.37,2013-03-04 16:16:00,
2013-03-04 16:31:00,46.0,38.9,29.62,SE,125,13.0,21.0,76,0.00,FEW,,0.00,WeatherDisplay:10.37,2013-03-04 16:31:00,
2013-03-04 16:46:00,45.4,38.3,29.61,SE,125,16.0,26.0,76,0.00,FEW,,0.00,WeatherDisplay:10.37,2013-03-04 16:46:00,
2013-03-04 17:01:00,45.0,38.2,29.61,SE,125,14.0,22.0,77,0.00,FEW,,0.00,WeatherDisplay:10.37,2013-03-04 17:01:00,
2013-03-04 17:16:00,44.4,38.0,29.60,SE,129,16.0,22.0,78,0.00,SCT,,0.00,WeatherDisplay:10.37,2013-03-04 17:16:00,
2013-03-04 17:31:00,44.2,38.1,29.60,SE,130,12.0,22.0,79,0.00,SCT,,0.00,WeatherDisplay:10.37,2013-03-04 17:31:00,
2013-03-04 17:46:00,43.7,37.9,29.60,SE,126,13.0,22.0,80,0.00,SCT,,0.00,WeatherDisplay:10.37,2013-03-04 17:46:00,
2013-03-04 18:01:00,43.2,37.4,29.59,SE,125,15.0,20.0,80,0.00,SCT,,0.00,WeatherDisplay:10.37,2013-03-04 18:01:00,
2013-03-04 18:16:00,42.9,37.5,29.59,SE,132,14.0,22.0,81,0.00,SCT,,0.00,WeatherDisplay:10.37,2013-03-04 18:16:00,
2013-03-04 18:31:00,42.6,37.2,29.59,SE,125,12.0,21.0,81,0.00,SCT,,0.00,WeatherDisplay:10.37,2013-03-04 18:31:00,
2013-03-04 18:46:00,42.3,37.2,29.60,SE,128,12.0,20.0,82,0.00,SCT,,0.00,WeatherDisplay:10.37,2013-03-04 18:46:00,
2013-03-04 19:01:00,42.1,37.3,29.60,ESE,122,9.0,21.0,83,0.00,SCT,,0.00,WeatherDisplay:10.37,2013-03-04 19:01:00,
2013-03-04 19:16:00,41.9,37.1,29.60,SE,126,9.0,20.0,83,0.00,FEW,,0.00,WeatherDisplay:10.37,2013-03-04 19:16:00,
2013-03-04 19:31:00,41.7,37.2,29.60,ESE,121,10.0,18.0,84,0.00,FEW,,0.00,WeatherDisplay:10.37,2013-03-04 19:31:00,
2013-03-04 19:46:00,41.5,37.1,29.60,ESE,119,9.0,17.0,84,0.00,FEW,,0.00,WeatherDisplay:10.37,2013-03-04 19:46:00,
2013-03-04 20:01:00,41.2,36.7,29.60,ESE,119,7.0,15.0,84,0.00,FEW,,0.00,WeatherDisplay:10.37,2013-03-04 20:01:00,
2013-03-04 20:16:00,40.8,36.4,29.60,ESE,111,5.0,13.0,84,0.00,FEW,,0.00,WeatherDisplay:10.37,2013-03-04 20:16:00,
2013-03-04 20:31:00,40.2,35.8,29.60,ESE,105,2.0,8.0,84,0.00,FEW,,0.00,WeatherDisplay:10.37,2013-03-04 20:31:00,
2013-03-04 20:46:00,39.7,35.6,29.60,ESE,109,5.0,7.0,85,0.00,FEW,,0.00,WeatherDisplay:10.37,2013-03-04 20:46:00,
2013-03-04 21:16:00,39.0,34.9,29.59,ESE,112,5.0,10.0,85,0.00,FEW,,0.00,WeatherDisplay:10.37,2013-03-04 21:16:00,
2013-03-04 21:31:00,38.8,35.0,29.59,ESE,118,3.0,7.0,86,0.00,FEW,,0.00,WeatherDisplay:10.37,2013-03-04 21:31:00,
2013-03-04 21:46:00,38.8,35.3,29.59,ESE,123,8.0,13.0,87,0.00,FEW,,0.00,WeatherDisplay:10.37,2013-03-04 21:46:00,
2013-03-04 22:01:00,39.4,35.8,29.58,ESE,115,7.0,15.0,87,0.00,FEW,,0.00,WeatherDisplay:10.37,2013-03-04 22:01:00,
2013-03-04 22:16:00,39.7,36.5,29.58,SE,125,7.0,12.0,88,0.00,FEW,,0.00,WeatherDisplay:10.37,2013-03-04 22:16:00,
2013-03-04 22:31:00,39.6,36.3,29.58,ESE,122,5.0,9.0,88,0.00,FEW,,0.00,WeatherDisplay:10.37,2013-03-04 22:31:00,
2013-03-04 22:46:00,39.6,36.3,29.57,SE,126,7.0,10.0,88,0.00,FEW,,0.00,WeatherDisplay:10.37,2013-03-04 22:46:00,
2013-03-04 23:01:00,39.6,36.3,29.57,ESE,118,7.0,10.0,88,0.00,FEW,,0.00,WeatherDisplay:10.37,2013-03-04 23:01:00,
2013-03-04 23:16:00,39.6,36.3,29.57,ESE,121,7.0,11.0,88,0.00,FEW,,0.00,WeatherDisplay:10.37,2013-03-04 23:16:00,
2013-03-04 23:31:00,39.9,36.7,29.57,ESE,112,7.0,10.0,88,0.00,FEW,,0.00,WeatherDisplay:10.37,2013-03-04 23:31:00,
2013-03-04 23:46:00,40.0,36.7,29.56,SE,127,9.0,14.0,88,0.00,FEW,,0.00,WeatherDisplay:10.37,2013-03-04 23:46:00,